JAL2482 RJFK-RJOO

Flight info

Callsign JAL2482
Flight time 0h 52m
Altitude 35000
Route MIDAI M750 MADOG Y753 IZUMI
Aircraft A306/H-Q/LB1

Departure

Time 2026-05-08 07:09
Airport Kagoshima Airport (RJFK)

Arrival

Time 2026-05-08 08:01
Airport Osaka Itami International Airport (RJOO)
Time Latitude Longitude Altitude Speed Heading
2026-05-08 06:57 31.80036 130.71737 864 ft 0 kts 240°
2026-05-08 07:01 31.80043 130.71751 863 ft 4 kts 239°
2026-05-08 07:01 31.80057 130.71778 864 ft 4 kts 237°
2026-05-08 07:02 31.80072 130.71804 866 ft 4 kts 234°
2026-05-08 07:02 31.80089 130.71829 867 ft 4 kts 228°
2026-05-08 07:02 31.80108 130.71851 864 ft 4 kts 210°
2026-05-08 07:02 31.80129 130.71858 864 ft 2 kts 152°
2026-05-08 07:03 31.80130 130.71857 864 ft 1 kts 150°
2026-05-08 07:05 31.80120 130.71864 865 ft 8 kts 149°
2026-05-08 07:05 31.80064 130.71902 862 ft 9 kts 150°
2026-05-08 07:05 31.80005 130.71942 861 ft 12 kts 150°
2026-05-08 07:05 31.79929 130.71992 862 ft 13 kts 150°
2026-05-08 07:06 31.79839 130.72053 859 ft 16 kts 150°
2026-05-08 07:06 31.79734 130.72123 856 ft 19 kts 150°
2026-05-08 07:06 31.79617 130.72201 856 ft 20 kts 150°
2026-05-08 07:06 31.79495 130.72285 855 ft 20 kts 148°
2026-05-08 07:07 31.79376 130.72367 854 ft 20 kts 150°
2026-05-08 07:07 31.79253 130.72449 854 ft 21 kts 150°
2026-05-08 07:07 31.79137 130.72540 852 ft 19 kts 125°
2026-05-08 07:07 31.79134 130.72624 850 ft 1 kts 64°
2026-05-08 07:08 31.79138 130.72633 848 ft 1 kts 64°
2026-05-08 07:08 31.79149 130.72657 847 ft 8 kts 59°
2026-05-08 07:08 31.79241 130.72678 848 ft 20 kts 336°
2026-05-08 07:08 31.79436 130.72548 852 ft 56 kts 329°
2026-05-08 07:09 31.79972 130.72183 861 ft 120 kts 330°
2026-05-08 07:09 31.80824 130.71637 1103 ft 154 kts 331°
2026-05-08 07:09 31.81833 130.71038 1854 ft 166 kts 330°
2026-05-08 07:09 31.82880 130.70395 2702 ft 181 kts 342°
2026-05-08 07:10 31.84246 130.70577 3041 ft 224 kts 23°
2026-05-08 07:10 31.85382 130.71993 3443 ft 257 kts 61°
2026-05-08 07:10 31.85601 130.74151 4152 ft 280 kts 96°
2026-05-08 07:10 31.85107 130.76395 5164 ft 287 kts 103°
2026-05-08 07:11 31.84595 130.78705 6046 ft 297 kts 102°
2026-05-08 07:11 31.83811 130.80981 7042 ft 306 kts 124°
2026-05-08 07:11 31.82252 130.82673 8065 ft 306 kts 150°
2026-05-08 07:11 31.80432 130.83963 9181 ft 306 kts 154°
2026-05-08 07:12 31.78579 130.85228 10206 ft 310 kts 155°
2026-05-08 07:12 31.76690 130.86536 10755 ft 330 kts 154°
2026-05-08 07:12 31.74644 130.87972 11054 ft 354 kts 154°
2026-05-08 07:12 31.72475 130.89518 11367 ft 375 kts 153°
2026-05-08 07:13 31.70189 130.91155 11674 ft 393 kts 153°
2026-05-08 07:13 31.67836 130.92858 12239 ft 401 kts 153°
2026-05-08 07:13 31.65452 130.94603 12880 ft 408 kts 151°
2026-05-08 07:13 31.63307 130.96832 13556 ft 420 kts 133°
2026-05-08 07:14 31.61821 130.99835 14106 ft 433 kts 112°
2026-05-08 07:14 31.61222 131.03326 14676 ft 440 kts 94°
2026-05-08 07:14 31.61159 131.06932 15215 ft 445 kts 90°
2026-05-08 07:14 31.61149 131.10583 15762 ft 450 kts 91°
2026-05-08 07:15 31.61111 131.14279 16293 ft 455 kts 92°
2026-05-08 07:15 31.61044 131.18010 16881 ft 459 kts 92°
2026-05-08 07:15 31.60992 131.20499 17252 ft 462 kts 92°
2026-05-08 07:15 31.60874 131.25547 17872 ft 472 kts 93°
2026-05-08 07:16 31.60775 131.29413 18318 ft 476 kts 93°
2026-05-08 07:16 31.60739 131.31999 18648 ft 478 kts 90°
2026-05-08 07:16 31.61071 131.35890 19100 ft 482 kts 79°
2026-05-08 07:16 31.62563 131.40858 19690 ft 485 kts 62°
2026-05-08 07:17 31.63595 131.43195 19961 ft 487 kts 59°
2026-05-08 07:17 31.65291 131.46644 20280 ft 490 kts 56°
2026-05-08 07:17 31.67076 131.50078 20713 ft 493 kts 55°
2026-05-08 07:17 31.68899 131.53514 21093 ft 497 kts 55°
2026-05-08 07:18 31.70732 131.56976 21474 ft 501 kts 55°
2026-05-08 07:18 31.72569 131.60482 21817 ft 506 kts 55°
2026-05-08 07:18 31.74405 131.64028 22204 ft 510 kts 56°
2026-05-08 07:18 31.76240 131.67607 22547 ft 513 kts 56°
2026-05-08 07:19 31.78081 131.71222 22911 ft 517 kts 56°
2026-05-08 07:19 31.79911 131.74826 23266 ft 520 kts 56°
2026-05-08 07:19 31.81768 131.78491 23582 ft 524 kts 56°
2026-05-08 07:19 31.83641 131.82188 23868 ft 527 kts 56°
2026-05-08 07:20 31.85518 131.85898 24179 ft 530 kts 56°
2026-05-08 07:20 31.87407 131.89632 24465 ft 532 kts 56°
2026-05-08 07:20 31.89303 131.93384 24774 ft 535 kts 56°
2026-05-08 07:20 31.91212 131.97162 25046 ft 538 kts 56°
2026-05-08 07:21 31.93127 132.00957 25336 ft 540 kts 56°
2026-05-08 07:21 31.95048 132.04768 25614 ft 542 kts 57°
2026-05-08 07:21 31.96979 132.08600 25861 ft 546 kts 57°
2026-05-08 07:21 31.98917 132.12451 26099 ft 548 kts 57°
2026-05-08 07:22 32.00870 132.16336 26360 ft 551 kts 57°
2026-05-08 07:22 32.02826 132.20231 26595 ft 553 kts 57°
2026-05-08 07:22 32.04760 132.24086 26869 ft 554 kts 57°
2026-05-08 07:22 32.06725 132.28010 27119 ft 556 kts 57°
2026-05-08 07:23 32.08697 132.31948 27325 ft 559 kts 57°
2026-05-08 07:23 32.10682 132.35917 27553 ft 561 kts 57°
2026-05-08 07:23 32.12670 132.39889 27761 ft 563 kts 56°
2026-05-08 07:23 32.14706 132.43845 27968 ft 565 kts 56°
2026-05-08 07:24 32.16779 132.47786 28204 ft 566 kts 55°
2026-05-08 07:24 32.18868 132.51721 28535 ft 565 kts 55°
2026-05-08 07:24 32.23101 132.59697 29166 ft 565 kts 55°
2026-05-08 07:25 32.25183 132.63639 29439 ft 565 kts 55°
2026-05-08 07:25 32.27259 132.67585 29695 ft 566 kts 55°
2026-05-08 07:25 32.31410 132.75501 30305 ft 566 kts 56°
2026-05-08 07:26 32.33480 132.79460 30610 ft 565 kts 56°
2026-05-08 07:26 32.35546 132.83415 30860 ft 565 kts 56°
2026-05-08 07:26 32.37610 132.87369 30908 ft 564 kts 56°
2026-05-08 07:27 32.41730 132.95272 30921 ft 564 kts 56°
2026-05-08 07:27 32.45805 133.03105 30891 ft 562 kts 56°
2026-05-08 07:28 32.49908 133.11006 30908 ft 564 kts 56°
2026-05-08 07:28 32.54010 133.18923 30903 ft 564 kts 56°
2026-05-08 07:29 32.58112 133.26857 30901 ft 565 kts 56°
2026-05-08 07:29 32.62219 133.34818 30925 ft 565 kts 56°
2026-05-08 07:30 32.66306 133.42777 30899 ft 564 kts 57°
2026-05-08 07:30 32.70320 133.50780 30901 ft 565 kts 57°
2026-05-08 07:31 32.74314 133.58821 30901 ft 565 kts 57°
2026-05-08 07:31 32.78305 133.66861 30889 ft 565 kts 57°
2026-05-08 07:32 32.82300 133.74910 30891 ft 565 kts 57°
2026-05-08 07:32 32.86291 133.82960 30892 ft 564 kts 57°
2026-05-08 07:33 32.90272 133.91010 30886 ft 565 kts 57°
2026-05-08 07:33 32.94251 133.99073 30898 ft 565 kts 57°
2026-05-08 07:34 32.98197 134.07089 30873 ft 564 kts 57°
2026-05-08 07:34 33.00167 134.11098 30734 ft 554 kts 57°
2026-05-08 07:34 33.02082 134.15007 30515 ft 539 kts 57°
2026-05-08 07:34 33.03945 134.18814 30292 ft 525 kts 57°
2026-05-08 07:35 33.05857 134.22486 30054 ft 517 kts 48°
2026-05-08 07:35 33.08292 134.25575 29784 ft 509 kts 38°
2026-05-08 07:35 33.10876 134.28429 29509 ft 505 kts 35°
2026-05-08 07:35 33.13533 134.31161 29240 ft 502 kts 34°
2026-05-08 07:36 33.16212 134.33834 29025 ft 499 kts 33°
2026-05-08 07:36 33.18877 134.36479 28754 ft 497 kts 33°
2026-05-08 07:36 33.21511 134.39110 28215 ft 492 kts 33°
2026-05-08 07:36 33.24114 134.41734 27610 ft 489 kts 33°
2026-05-08 07:37 33.26699 134.44360 26981 ft 486 kts 34°
2026-05-08 07:37 33.29271 134.46987 26412 ft 484 kts 34°
2026-05-08 07:37 33.31826 134.49606 25776 ft 484 kts 34°
2026-05-08 07:37 33.34378 134.52228 25154 ft 483 kts 34°
2026-05-08 07:38 33.36917 134.54838 24532 ft 482 kts 34°
2026-05-08 07:38 33.39457 134.57453 23910 ft 481 kts 34°
2026-05-08 07:38 33.41961 134.60030 23295 ft 481 kts 33°
2026-05-08 07:38 33.44497 134.62642 22591 ft 478 kts 34°
2026-05-08 07:39 33.46994 134.65222 22039 ft 472 kts 34°
2026-05-08 07:39 33.49469 134.67779 21569 ft 465 kts 34°
2026-05-08 07:39 33.51900 134.70294 21008 ft 461 kts 34°
2026-05-08 07:39 33.54320 134.72796 20516 ft 455 kts 34°
2026-05-08 07:40 33.56706 134.75265 19954 ft 452 kts 34°
2026-05-08 07:40 33.59131 134.77618 19469 ft 441 kts 28°
2026-05-08 07:40 33.61651 134.79671 18943 ft 435 kts 26°
2026-05-08 07:40 33.64184 134.81618 18448 ft 429 kts 25°
2026-05-08 07:41 33.66711 134.83485 17956 ft 423 kts 24°
2026-05-08 07:41 33.69220 134.85309 17332 ft 419 kts 24°
2026-05-08 07:41 33.71705 134.87109 16815 ft 414 kts 24°
2026-05-08 07:41 33.74149 134.88887 16062 ft 408 kts 25°
2026-05-08 07:42 33.76540 134.90638 15528 ft 396 kts 25°
2026-05-08 07:42 33.78852 134.92345 15129 ft 384 kts 25°
2026-05-08 07:42 33.81101 134.94018 14681 ft 377 kts 25°
2026-05-08 07:42 33.83319 134.95671 14288 ft 373 kts 25°
2026-05-08 07:43 33.85525 134.97298 13878 ft 371 kts 25°
2026-05-08 07:43 33.87691 134.98891 13463 ft 367 kts 25°
2026-05-08 07:43 33.89816 135.00462 13209 ft 350 kts 26°
2026-05-08 07:43 33.91849 135.01972 12888 ft 338 kts 26°
2026-05-08 07:44 33.93845 135.03452 12611 ft 336 kts 26°
2026-05-08 07:44 33.95845 135.04928 12318 ft 336 kts 26°
2026-05-08 07:44 33.97828 135.06395 11952 ft 331 kts 26°
2026-05-08 07:44 33.99785 135.07847 11591 ft 328 kts 26°
2026-05-08 07:45 34.01724 135.09287 11231 ft 326 kts 26°
2026-05-08 07:45 34.03628 135.10702 10894 ft 324 kts 26°
2026-05-08 07:45 34.05544 135.12126 10540 ft 323 kts 27°
2026-05-08 07:45 34.07454 135.13547 10183 ft 321 kts 27°
2026-05-08 07:46 34.09351 135.14960 9678 ft 320 kts 27°
2026-05-08 07:46 34.11221 135.16369 9264 ft 315 kts 27°
2026-05-08 07:46 34.13065 135.17757 8906 ft 310 kts 27°
2026-05-08 07:46 34.14897 135.19121 8571 ft 308 kts 27°
2026-05-08 07:47 34.16712 135.20471 8214 ft 305 kts 27°
2026-05-08 07:47 34.18519 135.21799 7903 ft 303 kts 27°
2026-05-08 07:47 34.20309 135.23133 7565 ft 302 kts 27°
2026-05-08 07:47 34.22077 135.24487 7232 ft 300 kts 28°
2026-05-08 07:48 34.23806 135.25880 6897 ft 298 kts 29°
2026-05-08 07:48 34.25515 135.27279 6561 ft 295 kts 29°
2026-05-08 07:48 34.27209 135.28667 6244 ft 293 kts 29°
2026-05-08 07:48 34.28891 135.30044 5901 ft 291 kts 29°
2026-05-08 07:49 34.30562 135.31418 5532 ft 288 kts 29°
2026-05-08 07:49 34.32183 135.32755 5342 ft 276 kts 29°
2026-05-08 07:49 34.33713 135.34041 5235 ft 266 kts 28°
2026-05-08 07:49 34.35227 135.35277 5066 ft 259 kts 28°
2026-05-08 07:50 34.36708 135.36484 4876 ft 255 kts 28°
2026-05-08 07:50 34.38168 135.37678 4636 ft 252 kts 28°
2026-05-08 07:50 34.39623 135.38857 4410 ft 251 kts 28°
2026-05-08 07:50 34.41063 135.40031 4163 ft 250 kts 28°
2026-05-08 07:51 34.42498 135.41204 3921 ft 248 kts 28°
2026-05-08 07:51 34.43874 135.42475 3701 ft 250 kts 40°
2026-05-08 07:51 34.44913 135.44177 3525 ft 253 kts 55°
2026-05-08 07:51 34.45783 135.46033 3496 ft 254 kts 57°
2026-05-08 07:52 34.46636 135.47915 3488 ft 255 kts 57°
2026-05-08 07:52 34.47494 135.49801 3490 ft 255 kts 57°
2026-05-08 07:52 34.48353 135.51685 3487 ft 255 kts 57°
2026-05-08 07:52 34.49187 135.53516 3497 ft 239 kts 57°
2026-05-08 07:53 34.49973 135.55239 3500 ft 231 kts 57°
2026-05-08 07:53 34.50758 135.56946 3483 ft 233 kts 57°
2026-05-08 07:53 34.51546 135.58665 3470 ft 234 kts 58°
2026-05-08 07:53 34.52323 135.60391 3480 ft 233 kts 57°
2026-05-08 07:54 34.53109 135.62103 3481 ft 231 kts 56°
2026-05-08 07:54 34.53944 135.63761 3482 ft 229 kts 47°
2026-05-08 07:54 34.55117 135.64982 3475 ft 219 kts 20°
2026-05-08 07:54 34.56530 135.65421 3492 ft 209 kts 358°
2026-05-08 07:55 34.57976 135.65471 3480 ft 207 kts 353°
2026-05-08 07:55 34.59402 135.65352 3477 ft 203 kts 343°
2026-05-08 07:55 34.60712 135.64811 3489 ft 197 kts 327°
2026-05-08 07:55 34.61782 135.63823 3476 ft 188 kts 311°
2026-05-08 07:56 34.62663 135.62750 3478 ft 173 kts 310°
2026-05-08 07:56 34.63504 135.61726 3484 ft 170 kts 310°
2026-05-08 07:56 34.64344 135.60711 3483 ft 171 kts 311°
2026-05-08 07:56 34.65192 135.59702 3332 ft 170 kts 312°
2026-05-08 07:57 34.66004 135.58734 3089 ft 157 kts 311°
2026-05-08 07:57 34.66761 135.57819 2865 ft 151 kts 310°
2026-05-08 07:57 34.67498 135.56929 2659 ft 149 kts 311°
2026-05-08 07:57 34.68240 135.56030 2455 ft 151 kts 312°
2026-05-08 07:58 34.68733 135.55436 2328 ft 151 kts 312°
2026-05-08 07:58 34.69718 135.54248 2060 ft 150 kts 312°
2026-05-08 07:58 34.70456 135.53357 1857 ft 148 kts 310°
2026-05-08 07:58 34.71186 135.52476 1666 ft 148 kts 309°
2026-05-08 07:59 34.71914 135.51596 1460 ft 145 kts 309°
2026-05-08 07:59 34.72387 135.51026 1321 ft 137 kts 309°
2026-05-08 07:59 34.73045 135.50231 1155 ft 132 kts 310°
2026-05-08 07:59 34.73681 135.49463 992 ft 129 kts 309°
2026-05-08 08:00 34.74320 135.48688 816 ft 129 kts 311°
2026-05-08 08:00 34.74983 135.47889 665 ft 139 kts 311°
2026-05-08 08:00 34.75677 135.47053 492 ft 143 kts 313°
2026-05-08 08:00 34.76378 135.46202 301 ft 143 kts 311°
2026-05-08 08:01 34.77082 135.45321 143 ft 143 kts 315°
2026-05-08 08:01 34.77793 135.44492 68 ft 139 kts 311°
2026-05-08 08:01 34.78392 135.43781 52 ft 92 kts 330°
2026-05-08 08:01 34.78693 135.43702 52 ft 24 kts 20°
2026-05-08 08:02 34.78807 135.43810 47 ft 6 kts 45°
2026-05-08 08:02 34.78835 135.43840 48 ft 11 kts 40°
2026-05-08 08:02 34.78880 135.43887 52 ft 6 kts 40°
2026-05-08 08:02 34.78899 135.43907 52 ft 1 kts 41°
2026-05-08 08:03 34.78911 135.43920 50 ft 4 kts 41°
2026-05-08 08:03 34.78922 135.43922 51 ft 1 kts 358°
2026-05-08 08:03 34.78932 135.43919 51 ft 1 kts 338°
2026-05-08 08:03 34.78936 135.43911 54 ft 2 kts 308°
2026-05-08 08:04 34.78953 135.43885 54 ft 7 kts 307°
2026-05-08 08:04 34.79015 135.43797 50 ft 14 kts 315°
2026-05-08 08:04 34.79080 135.43782 52 ft 9 kts 32°
2026-05-08 08:04 34.79128 135.43817 49 ft 8 kts 31°
2026-05-08 08:05 34.79172 135.43850 53 ft 7 kts 31°
2026-05-08 08:05 34.79183 135.43858 52 ft 0 kts 31°